sat.trackr.live / text

‹ back to catalog

STARLINK-2370

NORAD 47910 · 2021-021BC

PAYLOAD ACTIVE UNKNOWN

§ Identity

Operator
Country
US
Launch date
2021-03-14
Launch site
AFETR
Launch vehicle
Mass (kg)
RCS (m²)

Purposes: comms

External: N2YO · Heavens-Above · Gunter

§ Orbital elements

Epoch: 2026-09-20T01:55:00.361920Z

Period
94.01 min
Inclination
53.1580°
Eccentricity
0.0001363
Mean motion
15.31721092 rev/d
Perigee alt
469.7 km
Apogee alt
471.6 km
Semi-major
6,848.8 km
B*
9.3727e-5
RAAN
83.4674°
Arg perigee
93.8673°
Mean anomaly
266.2484°
Rev number
30,604

§ Raw data

STARLINK-23701 47910U 21021BC  26263.07986530  .00002546  00000+0  93727-4 0  99922 47910  53.1580  83.4674 0001363  93.8673 266.2484 15.31721092306042

JSON: /api/v1/satellites/47910 · /tle

For live sub-satellite position, see the globe view (requires WebGL).

§ Visibility from observer

Set your observer location to see the next 7 days of passes ≥ 10°. The values pass through the URL so the page stays shareable.

No JS? Fill the form by hand. The geolocation button needs JavaScript.